This demonstration page uses our WeatherBlox Daily Observations layout. Learn more.

Hourly Observations for September 12, 2019

Temp ( °F °C ) Dew Point ( °F °C ) Humidity (%) Winds ( mph kmh ) Pressure ( in mb ) Visibility ( mi km ) Precip ( " mm )
12:15 am 00:15 Clear 75 23.7 65 18.5 73 73 SSE 8 13 29.72 1006 10 16.0934 0 0
12:35 am 00:35 Mostly Cloudy 75 23.7 66 18.7 74 74 W 7 11 29.75 1007 10 16.0934 0 0
12:55 am 00:55 Cloudy 70 21.2 65 18.1 83 83 NW 21 33 29.82 1010 3 4.82802 0.23 5.842
1:15 am 01:15 Cloudy with Heavy Thunderstorms 66 19 66 18.8 99 99 NNW 8 13 29.83 1010 3 4.82802 0.23 5.842
1:35 am 01:35 Cloudy 66 18.7 66 18.7 100 100 N 9 15 29.82 1010 10 16.0934 0.24 6.096
1:55 am 01:55 Cloudy with Nearby Thunderstorms 66 18.7 66 18.7 100 100 N 7 11 29.83 1010 10 16.0934 0.24 6.096
2:15 am 02:15 Mostly Cloudy with Light Rain 66 18.8 66 18.8 100 100 N 6 9 29.83 1010 10 16.0934 0 0
2:35 am 02:35 Mostly Cloudy with Light Rain 66 18.7 66 18.7 100 100 N 6 9 29.83 1010 10 16.0934 0.02 0.508
2:55 am 02:55 Cloudy with Light Drizzle 65 18.6 65 18.6 100 100 NNW 6 9 29.83 1010 10 16.0934 0.02 0.508
3:15 am 03:15 Cloudy with Thunderstorms 65 18.6 65 18.6 100 100 N 6 9 29.85 1011 10 16.0934 0 0
3:35 am 03:35 Cloudy with Light Rain 65 18.5 65 18.5 100 100 NNW 6 9 29.85 1011 10 16.0934 0 0
3:55 am 03:55 Mostly Cloudy 65 18.3 65 18.2 99 99 NNW 7 11 29.85 1011 10 16.0934 0 0
4:15 am 04:15 Mostly Cloudy 65 18.2 64 18 99 99 NNW 6 9 29.86 1011 10 16.0934 0 0
4:35 am 04:35 Partly Cloudy 64 17.8 64 17.5 98 98 N 6 9 29.85 1011 10 16.0934 0 0
4:55 am 04:55 Clear 63 17.4 63 17.1 98 98 NNW 5 7 29.86 1011 10 16.0934 0 0
5:15 am 05:15 Clear 63 17 62 16.9 99 99 WNW 8 13 29.87 1012 10 16.0934 0 0
5:35 am 05:35 Clear 62 16.8 62 16.7 99 99 NW 5 7 29.87 1012 10 16.0934 0 0
5:55 am 05:55 Partly Cloudy 62 16.5 62 16.5 100 100 NW 7 11 29.87 1011 10 16.0934 0 0
6:15 am 06:15 Partly Cloudy 62 16.5 61 16.2 98 98 WNW 8 13 29.88 1012 10 16.0934 0 0
6:35 am 06:35 Clear 61 16.1 61 16 99 99 WNW 5 7 29.89 1012 10 16.0934 0 0
6:55 am 06:55 Clear 61 15.9 60 15.6 98 98 WNW 6 9 29.9 1013 10 16.0934 0 0
7:15 am 07:15 Clear 60 15.7 60 15.5 99 99 W 8 13 29.91 1013 10 16.0934 0 0
7:35 am 07:35 Sunny 60 15.8 60 15.5 98 98 W 12 19 29.94 1014 10 16.0934 0 0
7:55 am 07:55 Sunny 61 16 60 15.4 96 96 W 13 20 29.95 1014 10 16.0934 0 0
8:15 am 08:15 Sunny 61 16.2 59 15 93 93 W 10 17 29.95 1014 10 16.0934 0 0
8:35 am 08:35 Partly Cloudy 62 16.7 59 14.9 89 89 WNW 14 22 29.95 1014 10 16.0934 0 0
8:55 am 08:55 Cloudy 63 17.1 59 14.8 86 86 WNW 12 19 29.95 1014 10 16.0934 0 0
9:15 am 09:15 Cloudy 63 17.3 57 13.9 81 81 NW 14 22 29.95 1014 10 16.0934 0 0
9:35 am 09:35 Cloudy 63 17.4 56 13.6 79 79 NW 15 24 29.98 1015 10 16.0934 0 0
9:55 am 09:55 Partly Cloudy 63 17.2 54 12.3 73 73 NW 17 28 29.98 1015 10 16.0934 0 0
10:15 am 10:15 Partly Cloudy 63 17.4 54 12.1 71 71 WNW 22 35 29.98 1015 10 16.0934 0 0
10:35 am 10:35 Mostly Cloudy 64 17.5 54 12.2 71 71 WNW 16 26 29.98 1015 10 16.0934 0 0
10:55 am 10:55 Cloudy 63 17.1 53 11.6 70 70 WNW 12 19 29.99 1016 10 16.0934 0 0
11:15 am 11:15 Cloudy 64 17.7 53 11.6 68 68 WNW 14 22 29.99 1015 10 16.0934 0 0
11:35 am 11:35 Cloudy 66 18.9 52 11 60 60 WNW 17 28 29.98 1015 10 16.0934 0 0
11:55 am 11:55 Partly Cloudy 67 19.7 52 11.1 58 58 WNW 17 28 29.97 1015 10 16.0934 0 0
12:15 pm 12:15 Sunny 70 20.9 53 11.6 55 55 WNW 21 33 29.96 1015 10 16.0934 0 0
12:35 pm 12:35 Sunny 70 21.2 51 10.8 52 52 WNW 21 33 29.96 1014 10 16.0934 0 0
12:55 pm 12:55 Sunny 71 21.5 52 11.3 52 52 WNW 18 30 29.96 1015 10 16.0934 0 0
1:15 pm 13:15 Sunny 72 22.2 53 11.5 51 51 WNW 15 24 29.97 1015 10 16.0934 0 0
1:35 pm 13:35 Sunny 73 22.7 54 12.1 51 51 WNW 14 22 29.96 1015 10 16.0934 0 0
1:55 pm 13:55 Sunny 73 23 52 10.9 47 47 WNW 13 20 29.96 1015 10 16.0934 0 0
2:15 pm 14:15 Sunny 74 23.5 52 10.9 45 45 NW 13 20 29.96 1015 10 16.0934 0 0
2:35 pm 14:35 Sunny 75 23.7 51 10.4 43 43 NW 16 26 29.96 1014 10 16.0934 0 0
2:55 pm 14:55 Sunny 75 24 51 10.6 43 43 WNW 14 22 29.94 1014 10 16.0934 0 0
3:15 pm 15:15 Sunny 76 24.5 51 10.8 42 42 WNW 10 17 29.94 1014 10 16.0934 0 0
3:35 pm 15:35 Sunny 76 24.5 51 10.3 41 41 W 18 30 29.95 1014 10 16.0934 0 0
3:55 pm 15:55 Sunny 76 24.5 51 10.8 42 42 WNW 12 19 29.95 1014 10 16.0934 0 0
4:15 pm 16:15 Sunny 76 24.5 51 10.5 41 41 WNW 14 22 29.95 1014 10 16.0934 0 0
4:35 pm 16:35 Sunny 77 24.8 51 10.3 40 40 WNW 17 28 29.95 1014 10 16.0934 0 0
4:55 pm 16:55 Sunny 76 24.5 51 10.5 41 41 WNW 14 22 29.95 1014 10 16.0934 0 0
5:15 pm 17:15 Sunny 76 24.4 52 10.9 43 43 WNW 14 22 29.93 1014 10 16.0934 0 0
5:35 pm 17:35 Sunny 76 24.2 52 10.9 43 43 WNW 12 19 29.94 1014 10 16.0934 0 0
5:55 pm 17:55 Sunny 75 24 50 10.2 42 42 WNW 14 22 29.94 1014 10 16.0934 0 0
6:15 pm 18:15 Sunny 74 23.6 52 10.9 45 45 WNW 15 24 29.95 1014 10 16.0934 0 0
6:35 pm 18:35 Sunny 73 23 51 10.8 46 46 NW 12 19 29.95 1014 10 16.0934 0 0
6:55 pm 18:55 Sunny 72 22.2 52 11.1 50 50 NW 9 15 29.96 1015 10 16.0934 0 0
7:15 pm 19:15 Sunny 71 21.5 52 11 51 51 WNW 8 13 29.97 1015 10 16.0934 0 0
7:35 pm 19:35 Sunny 68 20 53 11.6 59 59 NW 6 9 29.99 1015 10 16.0934 0 0
7:55 pm 19:55 Clear 66 19 53 11.6 62 62 NW 6 9 30.02 1016 10 16.0934 0 0
8:15 pm 20:15 Clear 65 18.5 52 11.1 62 62 NW 7 11 30.03 1017 10 16.0934 0 0
8:35 pm 20:35 Clear 64 17.5 52 11.1 66 66 WNW 5 7 30.05 1018 10 16.0934 0 0
8:55 pm 20:55 Clear 62 16.8 52 11.1 69 69 WNW 5 7 30.07 1018 10 16.0934 0 0
9:15 pm 21:15 Clear 61 16.1 52 11.3 73 73 Calm 30.08 1019 10 16.0934 0 0
9:35 pm 21:35 Clear 60 15.7 53 11.5 76 76 Calm 30.1 1019 10 16.0934 0 0
9:55 pm 21:55 Clear 60 15.5 52 11 75 75 NNW 7 11 30.11 1020 10 16.0934 0 0
10:15 pm 22:15 Clear 60 15.7 51 10.6 72 72 NNW 6 9 30.13 1020 10 16.0934 0 0
10:35 pm 22:35 Clear 61 16.1 51 10.3 69 69 NNW 6 9 30.14 1021 10 16.0934 0 0
10:55 pm 22:55 Clear 60 15.5 51 10.4 72 72 NNW 5 7 30.13 1020 10 16.0934 0 0
11:15 pm 23:15 Clear 58 14.6 51 10.5 77 77 NW 3 6 30.14 1021 10 16.0934 0 0
11:35 pm 23:35 Clear 58 14.5 51 10.6 78 78 Calm 30.15 1021 10 16.0934 0 0
11:55 pm 23:55 Clear 55 13 51 10.6 85 85 Calm 30.17 1022 10 16.0934 0 0

Powered by AerisWeather